Regional Weather Roundup
Issued by NWS

Home | Current Version | Previous Version | Text Only | Print | Product List | Glossary Off
Versions: 1 2 3 4 5 6 7 8 9 10 11 12 13 14 15 16 17 18 19 20 21 22 23 24 25 26 27 28 29 30 31 32 33 34 35 36 37 38 39 40 41 42 43 44 45 46 47 48 49 50

000
ASUS43 KLOT 110208
RWRIL

ILLINOIS REGIONAL WEATHER ROUNDUP
NATIONAL WEATHER SERVICE CHICAGO/ROMEOVILLE IL
800 PM CST SUN DEC 10 2017

NOTE: "FAIR" INDICATES FEW OR NO CLOUDS BELOW 12,000 FEET WITH NO
SIGNIFICANT WEATHER AND/OR OBSTRUCTIONS TO VISIBILITY.

* THESE STATIONS ARE NOT UNDER NWS QUALITY CONTROL. THEY ALSO MAY NOT
  REPORT WEATHER SUCH AS PRECIPITATION OR FOG.

ILZ001-002-007-009-015-016-024-110300-
NORTHWEST ILLINOIS

CITY           SKY/WX    TMP DP  RH WIND       PRES   REMARKS
MOLINE         CLEAR     27  21  78 CALM      30.10R
STERLING*      CLEAR     27  21  78 N5        30.10R WCI  22
SAVANNA*       CLEAR     28  21  78 CALM      30.10R
$$

ILZ003-004-008-010-011-017-018-110300-
NORTH CENTRAL ILLINOIS

CITY           SKY/WX    TMP DP  RH WIND       PRES   REMARKS
ROCKFORD       MOCLDY    26  19  74 NW6       30.09R WCI  19
FREEPORT*      CLEAR     26  19  77 CALM      30.09S
ROCHELLE*      CLOUDY    28  20  72 NW9       30.09R WCI  20
DE KALB*       PTCLDY    25  19  79 NW8       30.07S WCI  16
PERU*          CLEAR     27  20  76 N7        30.10R WCI  19
$$

ILZ005-006-012>014-019>023-110300-
NORTHEAST ILLINOIS

CITY           SKY/WX    TMP DP  RH WIND       PRES   REMARKS
CHICAGO-OHARE  CLOUDY    30  19  63 NW8       30.06R WCI  22
CHICAGO-MIDWAY CLOUDY    31  20  63 N10       30.07R WCI  22
AURORA         CLOUDY    26  20  77 W6        30.08R WCI  19
LANSING*       PTCLDY    29  22  76 NW5       30.07R WCI  23
WAUKEGAN       CLOUDY    27  19  72 NW7       30.06R WCI  19
DUPAGE AIRPORT CLOUDY    29  21  72 NW6       30.06R WCI  23
KANKAKEE*      CLOUDY    28  19  69 NW6       30.08R WCI  22
WHEELING       CLOUDY    30  20  66 N8        30.09R WCI  22
MORRIS*        PTCLDY    28  20  74 NW6       30.08R WCI  21
ROMEOVILLE*    CLOUDY    30  21  70 N7        30.07R WCI  23
NORTHERLY ISL    N/A     29  19  66 NW9         N/A  WCI  21
$$

LMZ740>746-110300-
SOUTHERN LAKE MICHIGAN

STATION/POSITION SKY/WX   TEMP    WIND        PRES    VSBY  WAVE
                          AIR SEA DIR/SP/G                  HT/PER
                          (F)     (DEG/KT/KT) (MB)    (MI)  (FT/S)
HARRISON CRIB              30     310/ 19/ 22   N/A
BURNHAM HARBOR             30     330/  8/ 12   N/A
CALUMET HARBOR             29     310/ 10/ 12 1017.5R
BURNS HARBOR               32     340/ 14/ 21 1017.9R
MICHIGAN CITY              31     320/ 15/ 17   N/A
$$

ILZ025>027-034>036-040-047-049-050-058-095>099-110300-
WEST-CENTRAL ILLINOIS

CITY           SKY/WX    TMP DP  RH WIND       PRES   REMARKS
QUINCY         CLEAR     34  24  67 W3        30.11R
GALESBURG*     CLEAR     25  22  88 CALM      30.10S
MACOMB*        CLEAR     26  21  82 W5        30.12R WCI  20
JACKSONVILLE*  CLEAR     30  21  68 W6        30.11S WCI  24
PITTSFIELD*    CLEAR     32  24  71 SW3       30.12S
$$

ILZ028>032-037-038-041>044-048-051>054-059>061-110300-
CENTRAL ILLINOIS

CITY           SKY/WX    TMP DP  RH WIND       PRES   REMARKS
PONTIAC        CLEAR     28  22  77 NW5       30.10R WCI  23
BLOOMINGTON    CLEAR     29  22  75 NW7       30.09R WCI  22
DECATUR        CLEAR     32  23  69 NW6       30.10R WCI  26
PEORIA         CLEAR     31  22  69 CALM      30.11R
LACON*         CLEAR     24  19  81 CALM      30.10R
LINCOLN*       CLEAR     31  24  76 CALM      30.11R
SPRINGFIELD    PTCLDY    35  24  64 NW6       30.11R WCI  30
TAYLORVILLE    CLEAR     31  22  68 W6        30.11R WCI  26
$$

ILZ033-039-045-046-055>057-062-063-110300-
EAST-CENTRAL ILLINOIS

CITY           SKY/WX    TMP DP  RH WIND       PRES   REMARKS
CHAMPAIGN      CLOUDY    27  20  75 NW9       30.09R WCI  18
DANVILLE*      CLOUDY    31  22  69 NW9       30.04S WCI  23
RANTOUL*       CLOUDY    31  23  73 NW6       30.08R WCI  25
MATTOON        CLEAR     30  23  75 W8        30.08R WCI  22
PARIS*         CLOUDY    30  24  77 NW7       30.09R WCI  23
$$

ILZ079-100>102-110300-
SOUTHWEST ILLINOIS

CITY           SKY/WX    TMP DP  RH WIND       PRES   REMARKS
ALTON          CLEAR     32  25  74 CALM      30.13R
BELLEVILLE     CLEAR     35  24  63 CALM      30.12R
CAHOKIA*       CLEAR     44  24  45 W6        30.13R
$$

ILZ064>066-069>071-074>076-080>082-084>086-088>090-092>094-110300-
SOUTH-CENTRAL ILLINOIS

CITY           SKY/WX    TMP DP  RH WIND       PRES   REMARKS
CARBONDALE     CLEAR     39  28  64 W3        30.14R
CAIRO*         CLEAR     43  33  68 W5        30.13R
EFFINGHAM*     PTCLDY    31  26  78 W5        30.12R WCI  27
MARION         CLOUDY    42  30  62 CALM      30.14R
MT. VERNON     PTCLDY    29  25  85 CALM      30.13R
CENTRALIA*     CLEAR     38  27  63 NW5       30.11S WCI  35
SALEM*         CLEAR     38  25  59 W3        30.12R
METROPOLIS*    PTCLDY    40  31  68 SW5       30.13R
$$

ILZ067-068-072-073-078-083-087-091-110300-
SOUTHEAST ILLINOIS

CITY           SKY/WX    TMP DP  RH WIND       PRES   REMARKS
LAWRENCEVILLE  CLEAR     35  24  64 W6        30.10R WCI  30
FLORA*         PTCLDY    38  26  61 NW6       30.12R WCI  34
FAIRFIELD*     CLOUDY    33  25  73 CALM      30.11R
HARRISBURG*    PTCLDY    37  29  73 NW6       30.13R WCI  33
ROBINSON*      CLEAR     31  24  77 W8        30.11R WCI  23
CARMI*         CLOUDY    35  28  76 NW3       30.12R
$$

ABBREVIATIONS USED IN REMARKS
   TC - TEMPERATURE IN CELSIUS
  WCI - WIND CHILL INDEX
   HX - HEAT INDEX
  VSB - VISIBILITY
$$




USA.gov is the U.S. government's official web portal to all federal, state and local government web resources and services.